Jackson, MI

2:39 PM EST on November 17, 2019 (GMT -0500)
Jackson County-Reynolds

Weather History for KJXN - May, 2019

Change the Weather History Date:

Thursday, May 16, 2019

  Actual Average Record
Temperature  
Mean Temperature 60 °F 58 °F  
Max Temperature 76 °F 69 °F 91 °F (1977)
Min Temperature 44 °F 46 °F 31 °F (1997)
Degree Days  
Heating Degree Days 5 8  
Month to date heating degree days 185 163  
Since 1 July heating degree days 6582 6509  
Cooling Degree Days 0 1  
Month to date cooling degree days 0 9  
Year to date cooling degree days 0 15  
Growing Degree Days 10 (Base 50)    
Moisture  
Dew Point 52 °F    
Average Humidity 73    
Maximum Humidity 97    
Minimum Humidity 49    
Precipitation  
Precipitation T in 0.11 in 1.24 in (2001)
Month to date precipitation 1.17 1.64  
Year to date precipitation 9.41 8.93  
Sea Level Pressure  
Sea Level Pressure 29.83 in    
Wind  
Wind Speed 9 mph (SSW)    
Max Wind Speed 25 mph    
Max Gust Speed 38 mph    
Visibility 10 miles    
Events Rain    
T = Trace of Precipitation, MM = Missing Value Source: NWS Daily Summary

Daily Weather History Graph

Daily Weather History Graph

Search for Another Location

Airport or City:

Astronomy

May. 16, 2019 Rise Set
Actual Time 6:15 AM EDT 8:53 PM EDT
Civil Twilight 5:43 AM EDT 9:25 PM EDT
Nautical Twilight 5:03 AM EDT 10:05 PM EDT
Astronomical Twilight 4:17 AM EDT 10:51 PM EDT
Moon 6:27 PM EDT (5/16) 5:18 AM EDT (5/16)
Length of Visible Light 15h 41m
Length of Day
14h 37m
Waxing Gibbous, 94% of the Moon is Illuminated
May 16
Waxing Gibbous
May 18
Full
May 26
Last Quarter
Jun 3
New
Jun 10
First Quarter

Hourly Weather History & Observations

Time (EDT) Temp. Windchill Dew Point Humidity Pressure Visibility Wind Dir Wind Speed Gust Speed Precip Events Conditions
12:56 AM 53.1 °F - 45.0 °F 74% 29.93 in 10.0 mi SSW 3.5 mph - N/A   Clear
1:56 AM 48.0 °F - 45.0 °F 89% 29.92 in 10.0 mi SW 3.5 mph - N/A   Clear
2:56 AM 48.9 °F - 44.1 °F 83% 29.91 in 10.0 mi Calm Calm - N/A   Clear
3:56 AM 46.0 °F 44.8 °F 43.0 °F 89% 29.92 in 10.0 mi South 3.5 mph - N/A   Clear
4:56 AM 46.0 °F - 44.1 °F 93% 29.92 in 10.0 mi Calm Calm - N/A   Partly Cloudy
5:56 AM 48.0 °F - 45.0 °F 89% 29.94 in 10.0 mi Calm Calm - N/A   Mostly Cloudy
6:56 AM 48.0 °F - 45.0 °F 89% 29.94 in 10.0 mi Calm Calm - N/A   Partly Cloudy
7:56 AM 55.9 °F - 48.0 °F 75% 29.93 in 10.0 mi ESE 6.9 mph - N/A   Clear
8:56 AM 61.0 °F - 48.9 °F 64% 29.91 in 10.0 mi SSE 9.2 mph - N/A   Scattered Clouds
9:56 AM 64.9 °F - 53.1 °F 65% 29.89 in 10.0 mi SE 10.4 mph - N/A   Scattered Clouds
10:56 AM 68.0 °F - 55.0 °F 63% 29.89 in 10.0 mi South 9.2 mph - N/A   Clear
11:56 AM 73.0 °F - 55.9 °F 55% 29.87 in 10.0 mi SSW 11.5 mph - N/A   Clear
12:56 PM 73.0 °F - 54.0 °F 51% 29.86 in 10.0 mi SW 16.1 mph 28.8 mph N/A   Partly Cloudy
1:56 PM 73.0 °F - 53.1 °F 49% 29.84 in 10.0 mi SSW 19.6 mph - N/A   Partly Cloudy
2:56 PM 73.0 °F - 55.0 °F 53% 29.81 in 10.0 mi SSW 19.6 mph 27.6 mph N/A   Partly Cloudy
3:56 PM 72.0 °F - 55.0 °F 55% 29.75 in 10.0 mi SSW 16.1 mph 26.5 mph N/A   Mostly Cloudy
4:56 PM 75.0 °F - 55.0 °F 50% 29.73 in 10.0 mi SSW 17.3 mph 32.2 mph N/A   Mostly Cloudy
5:56 PM 75.0 °F - 55.9 °F 51% 29.71 in 10.0 mi SSW 16.1 mph 29.9 mph N/A   Clear
6:56 PM 73.0 °F - 55.9 °F 55% 29.72 in 10.0 mi SSW 16.1 mph - N/A   Mostly Cloudy
7:56 PM 71.1 °F - 57.0 °F 61% 29.74 in 10.0 mi SSW 10.4 mph - N/A   Mostly Cloudy
8:56 PM 68.0 °F - 59.0 °F 73% 29.73 in 10.0 mi SW 9.2 mph - 0.00 in Rain Light Rain
9:56 PM 61.0 °F - 57.9 °F 90% 29.71 in 10.0 mi SSW 4.6 mph - 0.00 in   Clear
10:56 PM 61.0 °F - 59.0 °F 93% 29.73 in 10.0 mi SW 4.6 mph - N/A   Overcast
11:56 PM 63.0 °F - 61.0 °F 93% 29.70 in 10.0 mi SSW 5.8 mph - N/A   Overcast